PCSAT (NO-44) (26931 NORAD) Tracking and Keplerian Element Data

This shows tracking and keplerian element data for the satellite.

Feedback or suggestion? Click here.




ElementValue
Catalog26931
NamePCSAT (NO-44)
Epoch Orbit4354
Epoch Day268.77863584
Epoch Year2021
RAAN21.5154
Inclination67.0534
Eccentricity0.0005446
Argument of Perigee269.361
Mean Anonmoly90.6867
Mean Motion14.3063356
Decay Rate-8E-08
L11 26931U 01043C 21268.77863584 -.00000008 00000-0 28773-4 0 9996
L22 26931 67.0534 21.5154 0005446 269.3610 90.6867 14.30633560 43545

Live tracking and technical data element details for PCSAT (NO-44) (NORAD 26931). PCSAT (NO-44) can be tracked NOW for your location showing map with azimuth and elevation plus other details from your city location.

Track the satellite on the map from your city or location and see movement details for azimuth, elevation, latitude, longitude, range, height, and movement on the map or in text.







IsCatalogInMostPopularTable: catalog: 26931, numindb: 1146
Update: records affected: 1



GetName: 26931 PCSAT (NO-44)

Hit Count: updated at: Mon, 27 Sep 2021 01:23:49 GMT